sat.trackr.live / text

‹ back to catalog

CONNECTA IOT-10

NORAD 64555 · 2025-135AD

PAYLOAD ACTIVE UNKNOWN

§ Identity

Operator
Country
TURK
Launch date
2025-06-23
Launch site
AFWTR
Launch vehicle
Mass (kg)
RCS (m²)

External: N2YO · Heavens-Above · Gunter

§ Orbital elements

Epoch: 2026-05-25T01:23:00.030336Z

Period
94.72 min
Inclination
97.4657°
Eccentricity
0.0002251
Mean motion
15.20243724 rev/d
Perigee alt
503.6 km
Apogee alt
506.7 km
Semi-major
6,883.2 km
B*
1.3600e-4
RAAN
260.3119°
Arg perigee
77.0998°
Mean anomaly
283.0488°
Rev number
5,134

§ Raw data

CONNECTA IOT-101 64555U 25135AD  26145.05763924  .00002881  00000+0  13600-3 0  99962 64555  97.4657 260.3119 0002251  77.0998 283.0488 15.20243724 51343

JSON: /api/v1/satellites/64555 · /tle

For live sub-satellite position, see the globe view (requires WebGL).

§ Visibility from observer

Set your observer location to see the next 7 days of passes ≥ 10°. The values pass through the URL so the page stays shareable.

No JS? Fill the form by hand. The geolocation button needs JavaScript.

§ Radio — SatNOGS DB

ModeDescriptionDownlinkUplink
GMSK Mode S - GMSK 4k8 AX.25 TLM 2.240 GHz
GMSK Mode U - GMSK 4k8 AX.25 TLM 401.520 MHz

2 transmitters · refreshed weekly from db.satnogs.org